Total_Precipitation_Accumulation
0.04 0.02 0.01 0.02 0.02 0.02 0.01 0.00 0.00 0.00 0.00 0.01 0.04 0.06 0.05 0.06 0.13 0.16 0.26 0.45 0.68 0.68 0.44 0.28 0.17 0.13 0.14 0.15 0.15 0.15 0.16 0.18 0.21 0.23 0.21 0.14 0.09 0.07 0.03 0.04 0.07 0.06 0.04
0.04 0.02 0.02 0.02 0.01 0.02 0.03 0.01 0.00 0.00 0.00 0.00 0.02 0.03 0.03 0.04 0.08 0.13 0.28 0.43 0.53 0.61 0.68 0.58 0.41 0.30 0.21 0.17 0.14 0.12 0.12 0.14 0.16 0.18 0.18 0.14 0.09 0.06 0.03 0.06 0.09 0.09 0.06
0.03 0.03 0.03 0.05 0.05 0.02 0.01 0.01 0.02 0.01 0.00 0.01 0.01 0.01 0.01 0.02 0.03 0.07 0.13 0.24 0.24 0.24 0.40 0.55 0.55 0.47 0.37 0.28 0.20 0.11 0.08 0.10 0.13 0.16 0.17 0.16 0.12 0.08 0.06 0.08 0.08 0.09 0.07
0.05 0.06 0.08 0.11 0.13 0.05 0.02 0.03 0.04 0.02 0.02 0.01 0.01 0.01 0.00 0.00 0.01 0.02 0.04 0.07 0.09 0.10 0.16 0.18 0.20 0.24 0.35 0.39 0.30 0.14 0.07 0.07 0.08 0.11 0.14 0.12 0.09 0.08 0.09 0.10 0.06 0.06 0.07
0.15 0.17 0.22 0.21 0.18 0.15 0.11 0.07 0.06 0.05 0.05 0.04 0.02 0.02 0.00 0.00 0.01 0.01 0.02 0.03 0.03 0.05 0.09 0.04 0.03 0.03 0.05 0.09 0.15 0.17 0.13 0.07 0.05 0.06 0.07 0.07 0.06 0.06 0.07 0.08 0.06 0.05 0.05
0.37 0.42 0.45 0.39 0.32 0.35 0.38 0.19 0.17 0.14 0.11 0.07 0.04 0.03 0.02 0.01 0.01 0.01 0.02 0.01 0.01 0.01 0.02 0.01 0.01 0.01 0.01 0.02 0.04 0.08 0.11 0.09 0.06 0.04 0.04 0.04 0.04 0.04 0.05 0.06 0.06 0.06 0.07
0.68 0.79 0.76 0.71 0.63 0.64 0.59 0.45 0.44 0.36 0.23 0.11 0.14 0.14 0.07 0.03 0.02 0.01 0.01 0.01 0.02 0.01 0.01 0.00 0.00 0.01 0.01 0.00 0.01 0.03 0.05 0.08 0.10 0.08 0.04 0.03 0.03 0.03 0.04 0.06 0.07 0.07 0.09
0.92 0.96 1.07 1.10 1.01 1.06 1.01 0.85 0.88 0.81 0.54 0.32 0.38 0.47 0.29 0.15 0.05 0.02 0.02 0.02 0.01 0.01 0.01 0.00 0.00 0.00 0.01 0.02 0.02 0.01 0.02 0.05 0.11 0.12 0.07 0.04 0.03 0.02 0.03 0.05 0.07 0.07 0.07
1.07 1.07 1.16 1.22 1.15 1.18 1.23 1.24 1.17 1.12 0.91 0.60 0.45 0.52 0.50 0.42 0.22 0.07 0.03 0.03 0.02 0.02 0.01 0.01 0.00 0.00 0.00 0.01 0.02 0.01 0.00 0.01 0.06 0.09 0.08 0.06 0.04 0.02 0.02 0.03 0.07 0.10 0.09
1.22 1.22 1.22 1.30 1.23 1.15 1.20 1.25 1.17 1.22 1.19 0.92 0.68 0.51 0.42 0.40 0.32 0.20 0.08 0.05 0.06 0.04 0.03 0.01 0.01 0.00 0.00 0.00 0.01 0.00 0.00 0.00 0.01 0.04 0.07 0.06 0.05 0.05 0.04 0.04 0.06 0.09 0.12
1.35 1.28 1.26 1.33 1.28 1.18 1.12 1.26 1.28 1.32 1.25 1.16 0.99 0.84 0.71 0.59 0.36 0.32 0.27 0.13 0.07 0.06 0.05 0.04 0.03 0.01 0.00 0.00 0.00 0.00 0.00 0.00 0.00 0.01 0.03 0.05 0.06 0.07 0.08 0.08 0.08 0.11 0.13
1.41 1.27 1.14 1.17 1.14 1.10 1.09 1.20 1.29 1.36 1.32 1.33 1.18 0.94 0.83 0.72 0.55 0.48 0.40 0.29 0.17 0.07 0.06 0.05 0.05 0.04 0.01 0.00 0.00 0.00 0.00 0.00 0.00 0.01 0.01 0.02 0.03 0.04 0.07 0.11 0.12 0.13 0.13
1.30 1.28 1.12 1.06 1.00 0.94 0.94 1.03 1.09 1.11 1.19 1.30 1.16 0.95 0.89 0.75 0.67 0.64 0.53 0.41 0.32 0.15 0.06 0.05 0.06 0.04 0.03 0.02 0.01 0.01 0.00 0.00 0.00 0.00 0.00 0.01 0.01 0.01 0.02 0.05 0.11 0.18 0.20
1.09 1.11 1.07 0.97 0.96 0.98 0.97 0.96 0.96 0.95 0.91 0.95 0.98 0.97 0.96 0.82 0.71 0.64 0.61 0.64 0.57 0.44 0.25 0.11 0.09 0.07 0.07 0.05 0.03 0.02 0.01 0.00 0.00 0.00 0.00 0.00 0.00 0.00 0.00 0.01 0.05 0.08 0.11
0.67 0.72 0.78 0.77 0.80 0.87 0.90 0.96 0.97 0.92 0.82 0.81 0.88 0.92 0.86 0.80 0.74 0.64 0.59 0.59 0.62 0.58 0.53 0.37 0.20 0.10 0.10 0.08 0.06 0.04 0.02 0.01 0.01 0.00 0.01 0.01 0.00 0.00 0.00 0.00 0.00 0.01 0.01
0.39 0.42 0.48 0.51 0.56 0.67 0.76 0.82 0.85 0.88 0.85 0.81 0.86 0.92 0.93 0.92 0.91 0.81 0.69 0.64 0.58 0.59 0.57 0.47 0.32 0.17 0.20 0.18 0.14 0.07 0.04 0.03 0.02 0.01 0.01 0.01 0.01 0.00 0.00 0.00 0.00 0.00 0.00
0.28 0.30 0.35 0.38 0.38 0.43 0.55 0.72 0.79 0.79 0.76 0.74 0.74 0.82 0.94 0.98 1.03 1.00 0.94 0.82 0.71 0.69 0.66 0.59 0.44 0.25 0.23 0.24 0.21 0.13 0.07 0.04 0.03 0.02 0.02 0.01 0.01 0.01 0.00 0.00 0.00 0.00 0.00
0.21 0.23 0.30 0.34 0.35 0.35 0.38 0.50 0.61 0.63 0.63 0.65 0.66 0.68 0.77 0.87 0.97 1.04 1.04 1.00 0.96 0.85 0.82 0.79 0.65 0.44 0.30 0.27 0.22 0.17 0.13 0.09 0.06 0.07 0.08 0.05 0.02 0.01 0.00 0.00 0.00 0.00 0.00
0.23 0.25 0.30 0.35 0.37 0.36 0.35 0.35 0.41 0.47 0.49 0.49 0.50 0.51 0.54 0.63 0.76 0.91 0.99 1.01 1.04 1.04 0.99 0.91 0.80 0.66 0.44 0.33 0.26 0.22 0.18 0.15 0.12 0.11 0.12 0.11 0.08 0.05 0.03 0.02 0.01 0.00 0.00
0.31 0.32 0.42 0.45 0.41 0.35 0.35 0.35 0.37 0.38 0.36 0.34 0.34 0.32 0.33 0.38 0.47 0.61 0.77 0.92 1.03 1.09 1.12 1.08 0.91 0.71 0.60 0.50 0.34 0.26 0.26 0.24 0.21 0.19 0.15 0.15 0.15 0.11 0.08 0.05 0.03 0.02 0.01
0.37 0.39 0.42 0.45 0.47 0.42 0.40 0.41 0.36 0.31 0.30 0.29 0.25 0.19 0.19 0.23 0.27 0.33 0.40 0.59 0.81 0.95 1.00 1.04 0.96 0.79 0.64 0.55 0.43 0.37 0.35 0.34 0.29 0.26 0.23 0.21 0.19 0.16 0.15 0.13 0.09 0.06 0.04
0.32 0.34 0.37 0.43 0.47 0.40 0.49 0.46 0.35 0.25 0.25 0.24 0.19 0.17 0.18 0.21 0.21 0.19 0.20 0.29 0.46 0.63 0.78 0.90 0.94 0.84 0.70 0.62 0.56 0.49 0.39 0.32 0.28 0.24 0.24 0.27 0.26 0.23 0.23 0.21 0.21 0.19 0.14
0.33 0.33 0.33 0.37 0.41 0.52 0.45 0.30 0.28 0.25 0.27 0.26 0.25 0.24 0.22 0.21 0.24 0.20 0.19 0.20 0.23 0.27 0.39 0.59 0.75 0.80 0.87 0.75 0.59 0.47 0.39 0.34 0.35 0.35 0.29 0.26 0.25 0.23 0.25 0.24 0.26 0.26 0.24
0.36 0.37 0.37 0.34 0.37 0.46 0.37 0.22 0.22 0.22 0.29 0.34 0.31 0.31 0.32 0.28 0.27 0.28 0.29 0.33 0.32 0.29 0.35 0.28 0.38 0.65 0.73 0.71 0.63 0.55 0.49 0.43 0.37 0.32 0.29 0.27 0.29 0.28 0.24 0.21 0.22 0.21 0.19
0.43 0.42 0.42 0.39 0.41 0.41 0.32 0.22 0.23 0.30 0.41 0.42 0.35 0.37 0.37 0.32 0.38 0.34 0.38 0.51 0.50 0.44 0.55 0.53 0.48 0.50 0.51 0.48 0.48 0.51 0.50 0.44 0.38 0.32 0.25 0.21 0.21 0.24 0.25 0.26 0.23 0.21 0.19
0.41 0.41 0.38 0.34 0.35 0.35 0.36 0.23 0.28 0.39 0.45 0.46 0.44 0.46 0.54 0.44 0.44 0.33 0.30 0.44 0.51 0.46 0.41 0.43 0.40 0.33 0.25 0.26 0.31 0.33 0.45 0.51 0.48 0.40 0.32 0.24 0.23 0.22 0.22 0.22 0.19 0.17 0.15